Home   Weather   St. Croix Falls   Past weeks

Flag for USA Past Weather in St. Croix Falls, Wisconsin, USA — Yesterday and Last 2 Weeks

Now
32 °F

Clear.


Feels Like: 26 °F
Forecast: 31 / 40 °F
Wind: 6 mph from Southeast

Location: L O Simenstad Municipal Airport

Current Time: Jan 19, 2017 at 12:59:13 am

Latest Report: Jan 19, 2017 at 12:15 am


Visibility: 7 mi

Pressure: 29.86 "Hg

Humidity: 100%

Dew Point: 32 °F

Location of St. Croix FallsLocation

Past Weather in St. Croix Falls — Graph

°F

St. Croix Falls Temperature Yesterday

Maximum temperature yesterday: 39 °F (at 1:55 pm)
Minimum temperature yesterday: 27 °F (at 4:15 am)
Average temperature yesterday: 32 °F

High & Low Weather Summary for the Past Weeks

 TemperatureHumidityPressure
High39 °F (Jan 18, 1:55 pm)100% (Jan 10, 6:55 am)30.86 "Hg (Jan 10, 6:55 am)
Low-17 °F (Jan 13, 4:55 am)44% (Jan 12, 3:35 pm)29.33 "Hg (Jan 10, 11:55 am)
Average10 °F76%30.19 "Hg
* Reported Jan 3 11:35 pm — Jan 18 11:55 pm, St. Croix Falls, Weather by CustomWeather, © 2017

Note: Actual official high and low records may vary slightly from our data, if they occured in-between our weather recording intervals... More about our weather records

Advertising

St. Croix Falls Weather History for the Previous 24 Hours

Scroll right to see more
 ConditionsComfort  
Time TempWeatherWind HumidityBarometerVisibility
11:55 pm
Wed, Jan 18
31 °FClear.6 mph100%29.86 "Hg7 mi
11:15 pm29 °FIce fog.6 mph100%29.87 "Hg5 mi
10:35 pm29 °FIce fog.5 mph100%29.87 "Hg4 mi
9:55 pm28 °FIce fog.No wind100%29.87 "Hg4 mi
9:15 pm31 °FClear.3 mph100%29.88 "Hg7 mi
8:55 pm32 °FClear.5 mph100%29.88 "Hg7 mi
8:15 pm32 °FClear.7 mph96%29.88 "Hg7 mi
7:55 pm33 °FClear.6 mph100%29.89 "Hg7 mi
7:15 pm33 °FClear.8 mph95%29.89 "Hg7 mi
6:55 pm34 °FClear.7 mph90%29.89 "Hg7 mi
6:35 pm34 °FClear.8 mph88%29.89 "Hg10 mi
5:55 pm35 °FClear.8 mph87%29.89 "Hg10 mi
5:15 pm36 °FClear.7 mph84%29.88 "Hg10 mi
4:55 pm36 °FSunny.6 mph83%29.88 "Hg10 mi
4:15 pm38 °FSunny.9 mph77%29.88 "Hg10 mi
3:55 pm39 °FSunny.8 mph76%29.88 "Hg10 mi
3:35 pm39 °FSunny.8 mph76%29.88 "Hg10 mi
2:55 pm39 °FSunny.8 mph75%29.88 "Hg10 mi
2:15 pm39 °FSunny.8 mph72%29.88 "Hg10 mi
1:55 pm39 °FSunny.9 mph72%29.88 "Hg10 mi
1:15 pm38 °FSunny.9 mph74%29.88 "Hg10 mi
12:55 pm38 °FSunny.9 mph74%29.89 "Hg10 mi
12:15 pm37 °FSunny.9 mph74%29.88 "Hg10 mi
11:55 am38 °FSunny.7 mph71%29.90 "Hg10 mi
11:15 am36 °FSunny.7 mph74%29.91 "Hg10 mi
10:55 am35 °FSunny.8 mph76%29.92 "Hg10 mi
10:15 am32 °FSunny.8 mph82%29.92 "Hg10 mi
9:55 am31 °FSunny.8 mph84%29.92 "Hg10 mi
9:35 am30 °FSunny.8 mph100%29.92 "Hg10 mi
8:55 am29 °FSunny.7 mph100%29.94 "Hg7 mi
8:15 am28 °FSunny.12 mph100%29.93 "Hg7 mi
7:55 am28 °FSunny.8 mph100%29.94 "Hg7 mi
7:15 am28 °FClear.12 mph100%29.94 "Hg10 mi
6:55 am28 °FClear.10 mph100%29.95 "Hg10 mi
6:15 am28 °FPassing clouds.12 mph100%29.95 "Hg10 mi
5:55 am27 °FClear.10 mph100%29.94 "Hg10 mi
5:15 am27 °FClear.12 mph100%29.95 "Hg10 mi
4:55 am27 °FClear.9 mph100%29.96 "Hg7 mi
4:15 am27 °FClear.9 mph100%29.97 "Hg7 mi
3:35 am29 °FPassing clouds.6 mph100%29.98 "Hg7 mi
2:55 am29 °FLow clouds.9 mph100%29.98 "Hg7 mi
2:15 am29 °FLow clouds.9 mph100%29.98 "Hg7 mi
1:55 am29 °FLow clouds.7 mph100%29.98 "Hg7 mi
1:15 am29 °FIce fog.8 mph100%29.98 "Hg5 mi
12:35 am30 °FLow clouds.9 mph100%29.99 "Hg7 mi
Weather by CustomWeather, © 2017

See weather overviewHow to use our weather pages